Location: Buena Vista
(37.7110°N, 119.7938°W)
Time: 15:56:11
(UTC+00:00)

PCSat - Visible Passes

Search period start: 04 October 2024 00:00
Search period end: 14 October 2024 00:00
Orbit: 781 x 792 km, 67.1° (Epoch: 03 October)

Date Brightness Start Highest point End Pass type
(mag) Time Alt. Az. Time Alt. Az. Time Alt. Az.
04 Oct 12.1 10:22:11 15° E 10:22:11 15° E 10:23:50 10° ENE visible
04 Oct 9.6 12:02:52 54° WNW 12:03:04 55° WNW 12:08:23 10° NNE visible
05 Oct 10.1 11:32:29 52° N 11:32:29 52° N 11:36:38 10° NNE visible
05 Oct 11.5 13:13:13 10° WNW 13:15:25 12° NW 13:17:37 10° NNW visible
06 Oct 11.1 11:02:01 31° NE 11:02:01 31° NE 11:04:47 10° NNE visible
06 Oct 11.2 12:42:41 16° NW 12:43:16 17° NW 12:46:42 10° N visible
07 Oct 12.0 10:31:27 18° NE 10:31:27 18° NE 10:32:49 10° NE visible
07 Oct 11.0 12:12:08 21° NW 12:12:08 21° NW 12:15:23 10° N visible
08 Oct 11.2 11:41:30 22° NNW 11:41:30 22° NNW 11:43:54 10° N visible
09 Oct 11.7 11:10:48 18° N 11:10:48 18° N 11:12:18 10° NNE visible
10 Oct 12.2 10:40:04 13° NNE 10:40:04 13° NNE 10:40:36 10° NNE visible
11 Oct 12.0 11:49:56 10° NNW 11:49:56 10° NNW 11:50:00 10° NNW visible
